• In Hungary
  • List of Countries
  • For 7 days
  • Water Temperature
  • Satellite Maps
  • Weather Map
  • News
  • Weather Widgets
  • user-avatar
    Login

    Hourly Weather Klenovyy

    Today, 19 July, Thursday

    Time Temperature Precipitation Wind Pressure Humidity
    00:00 +23°C° 0 mm 1 mps 745 mmHg 65%
    01:00 +23°C° 0 mm 1 mps 745 mmHg 65%
    02:00 +23°C° 0 mm 1 mps 745 mmHg 66%
    03:00 +22°C° 0 mm 1 mps 745 mmHg 67%
    04:00 +22°C° 0 mm 1 mps 745 mmHg 69%
    05:00 +23°C° 0 mm 1 mps 745 mmHg 67%
    06:00 +24°C° 0 mm 1 mps 746 mmHg 65%
    07:00 +25°C° 0 mm 1 mps 746 mmHg 63%
    08:00 +27°C° 0 mm 1 mps 746 mmHg 58%
    09:00 +28°C° 0 mm 2 mps 746 mmHg 52%
    10:00 +30°C° 0 mm 2 mps 746 mmHg 47%
    11:00 +31°C° 0 mm 2 mps 746 mmHg 45%
    12:00 +31°C° 0 mm 2 mps 746 mmHg 43%
    13:00 +33°C° 0 mm 3 mps 746 mmHg 41%
    14:00 +32°C° 0 mm 2 mps 746 mmHg 40%
    15:00 +32°C° 0 mm 2 mps 746 mmHg 40%
    16:00 +32°C° 0 mm 2 mps 746 mmHg 40%
    17:00 +32°C° 0 mm 1 mps 746 mmHg 43%
    18:00 +31°C° 0 mm 1 mps 746 mmHg 47%
    19:00 +29°C° 0 mm 0 mps 746 mmHg 50%
    20:00 +29°C° 0 mm 1 mps 746 mmHg 51%
    21:00 +28°C° 0 mm 1 mps 747 mmHg 52%
    22:00 +27°C° 0 mm 1 mps 747 mmHg 53%
    23:00 +26°C° 0 mm 1 mps 747 mmHg 55%

    Tomorrow, 20 July, Friday

    Time Temperature Precipitation Wind Pressure Humidity
    00:00 +25°C° 0 mm 1 mps 747 mmHg 57%
    01:00 +24°C° 0 mm 1 mps 747 mmHg 60%
    02:00 +24°C° 0 mm 1 mps 747 mmHg 62%
    03:00 +24°C° 0 mm 1 mps 747 mmHg 63%
    04:00 +23°C° 0 mm 1 mps 747 mmHg 65%
    05:00 +24°C° 0 mm 1 mps 747 mmHg 65%
    06:00 +25°C° 0 mm 1 mps 747 mmHg 64%
    07:00 +26°C° 0 mm 1 mps 747 mmHg 64%
    08:00 +28°C° 0 mm 1 mps 747 mmHg 58%
    09:00 +29°C° 0 mm 2 mps 747 mmHg 53%
    10:00 +31°C° 0 mm 2 mps 747 mmHg 48%
    11:00 +32°C° 0 mm 2 mps 747 mmHg 44%
    12:00 +33°C° 0 mm 1 mps 746 mmHg 40%
    13:00 +34°C° 0 mm 1 mps 746 mmHg 36%
    14:00 +34°C° 0 mm 1 mps 746 mmHg 36%
    15:00 +34°C° 0 mm 1 mps 746 mmHg 37%
    16:00 +34°C° 0 mm 1 mps 746 mmHg 37%
    17:00 +34°C° 0 mm 2 mps 746 mmHg 42%
    18:00 +32°C° 0 mm 2 mps 746 mmHg 48%
    19:00 +31°C° 0 mm 3 mps 746 mmHg 53%
    20:00 +30°C° 0 mm 3 mps 746 mmHg 56%
    21:00 +28°C° 0 mm 3 mps 746 mmHg 60%
    22:00 +27°C° 0 mm 3 mps 746 mmHg 63%
    23:00 +26°C° 0.4 mm 3 mps 746 mmHg 67%

    Day after tomorrow, 21 July, Saturday

    Time Temperature Precipitation Wind Pressure Humidity
    00:00 +25°C° 0.4 mm 3 mps 746 mmHg 71%
    01:00 +23°C° 0.4 mm 4 mps 746 mmHg 75%
    02:00 +24°C° 0.5 mm 3 mps 746 mmHg 78%
    03:00 +22°C° 0.5 mm 3 mps 746 mmHg 81%
    04:00 +22°C° 0.5 mm 3 mps 746 mmHg 84%
    05:00 +22°C° 0.2 mm 3 mps 746 mmHg 82%
    06:00 +22°C° 0.2 mm 4 mps 746 mmHg 81%
    07:00 +23°C° 0.2 mm 4 mps 747 mmHg 80%
    08:00 +25°C° 0 mm 4 mps 747 mmHg 76%
    09:00 +26°C° 0 mm 5 mps 747 mmHg 71%
    10:00 +28°C° 0 mm 5 mps 747 mmHg 67%
    11:00 +29°C° 0.1 mm 5 mps 747 mmHg 63%
    12:00 +30°C° 0.1 mm 5 mps 747 mmHg 59%
    13:00 +32°C° 0.1 mm 6 mps 747 mmHg 55%
    14:00 +32°C° 0.4 mm 6 mps 747 mmHg 55%
    15:00 +30°C° 0.4 mm 6 mps 747 mmHg 55%
    16:00 +30°C° 0.4 mm 6 mps 747 mmHg 55%
    17:00 +29°C° 0 mm 5 mps 747 mmHg 59%
    18:00 +28°C° 0 mm 5 mps 747 mmHg 63%
    19:00 +27°C° 0 mm 5 mps 747 mmHg 67%
    20:00 +26°C° 0 mm 5 mps 747 mmHg 69%
    21:00 +24°C° 0 mm 6 mps 747 mmHg 71%
    22:00 +23°C° 0 mm 6 mps 747 mmHg 74%
    23:00 +22°C° 0 mm 6 mps 747 mmHg 74%

    22 July, Sunday

    Time Temperature Precipitation Wind Pressure Humidity
    00:00 +22°C° 0 mm 5 mps 748 mmHg 74%
    01:00 +21°C° 0 mm 5 mps 748 mmHg 75%
    02:00 +21°C° 0 mm 5 mps 748 mmHg 75%
    03:00 +20°C° 0 mm 6 mps 748 mmHg 75%
    04:00 +20°C° 0 mm 6 mps 748 mmHg 75%
    05:00 +20°C° 0 mm 6 mps 748 mmHg 74%
    06:00 +21°C° 0 mm 7 mps 748 mmHg 73%
    07:00 +21°C° 0 mm 7 mps 748 mmHg 72%
    08:00 +22°C° 0 mm 7 mps 748 mmHg 70%
    09:00 +23°C° 0 mm 7 mps 748 mmHg 67%
    10:00 +24°C° 0 mm 7 mps 748 mmHg 64%
    11:00 +26°C° 0 mm 7 mps 748 mmHg 62%
    12:00 +27°C° 0 mm 7 mps 748 mmHg 59%
    13:00 +28°C° 0 mm 7 mps 748 mmHg 57%
    14:00 +28°C° 0 mm 7 mps 748 mmHg 56%
    15:00 +28°C° 0 mm 7 mps 748 mmHg 54%
    16:00 +28°C° 0 mm 7 mps 748 mmHg 53%
    17:00 +27°C° 0 mm 7 mps 749 mmHg 55%
    18:00 +26°C° 0 mm 6 mps 749 mmHg 57%
    19:00 +25°C° 0 mm 5 mps 749 mmHg 58%
    20:00 +23°C° 0 mm 6 mps 749 mmHg 58%
    21:00 +22°C° 0 mm 6 mps 750 mmHg 57%
    22:00 +21°C° 0 mm 6 mps 750 mmHg 56%
    23:00 +20°C° 0 mm 6 mps 750 mmHg 56%

    23 July, Monday

    Time Temperature Precipitation Wind Pressure Humidity
    00:00 +19°C° 0 mm 6 mps 750 mmHg 56%
    01:00 +17°C° 0 mm 7 mps 750 mmHg 56%
    02:00 +17°C° 0 mm 6 mps 750 mmHg 57%
    03:00 +16°C° 0 mm 6 mps 751 mmHg 58%
    04:00 +15°C° 0 mm 5 mps 751 mmHg 59%
    05:00 +16°C° 0 mm 6 mps 751 mmHg 59%
    06:00 +16°C° 0 mm 6 mps 751 mmHg 60%
    07:00 +16°C° 0 mm 7 mps 751 mmHg 61%
    08:00 +17°C° 0 mm 7 mps 751 mmHg 57%
    09:00 +20°C° 0 mm 7 mps 752 mmHg 54%
    10:00 +21°C° 0 mm 6 mps 752 mmHg 50%
    11:00 +22°C° 0 mm 6 mps 752 mmHg 48%
    12:00 +23°C° 0 mm 6 mps 752 mmHg 45%
    13:00 +24°C° 0 mm 6 mps 751 mmHg 42%
    14:00 +24°C° 0 mm 6 mps 751 mmHg 42%
    15:00 +26°C° 0 mm 6 mps 751 mmHg 42%
    16:00 +26°C° 0 mm 6 mps 751 mmHg 42%
    17:00 +25°C° 0 mm 5 mps 751 mmHg 47%
    18:00 +23°C° 0 mm 5 mps 752 mmHg 51%
    19:00 +23°C° 0 mm 4 mps 752 mmHg 55%
    20:00 +21°C° 0 mm 4 mps 752 mmHg 58%
    21:00 +20°C° 0 mm 4 mps 752 mmHg 62%
    22:00 +18°C° 0 mm 4 mps 753 mmHg 65%
    23:00 +18°C° 0 mm 4 mps 753 mmHg 65%

    24 July, Tuesday

    Time Temperature Precipitation Wind Pressure Humidity
    00:00 +17°C° 0 mm 4 mps 753 mmHg 66%
    01:00 +17°C° 0 mm 4 mps 753 mmHg 66%
    02:00 +15°C° 0 mm 4 mps 753 mmHg 67%
    03:00 +14°C° 0 mm 4 mps 753 mmHg 68%
    04:00 +14°C° 0 mm 4 mps 753 mmHg 69%
    05:00 +15°C° 0 mm 4 mps 754 mmHg 67%
    06:00 +15°C° 0 mm 5 mps 754 mmHg 66%
    07:00 +16°C° 0 mm 5 mps 754 mmHg 64%
    08:00 +19°C° 0 mm 5 mps 754 mmHg 58%
    09:00 +21°C° 0 mm 5 mps 755 mmHg 52%
    10:00 +23°C° 0 mm 5 mps 755 mmHg 47%
    11:00 +25°C° 0 mm 5 mps 755 mmHg 44%
    12:00 +26°C° 0 mm 5 mps 755 mmHg 42%
    13:00 +27°C° 0 mm 5 mps 755 mmHg 39%
    14:00 +27°C° 0 mm 5 mps 755 mmHg 39%
    15:00 +27°C° 0 mm 4 mps 755 mmHg 38%
    16:00 +28°C° 0 mm 4 mps 755 mmHg 37%
    17:00 +27°C° 0 mm 4 mps 755 mmHg 42%
    18:00 +26°C° 0 mm 3 mps 755 mmHg 46%
    19:00 +26°C° 0 mm 3 mps 755 mmHg 50%
    20:00 +24°C° 0 mm 3 mps 755 mmHg 54%
    21:00 +21°C° 0 mm 3 mps 755 mmHg 57%
    22:00 +20°C° 0 mm 3 mps 755 mmHg 60%
    23:00 +19°C° 0 mm 3 mps 755 mmHg 62%
    Show more